Location: Lecco
(45.8566°N, 9.3977°E)
Time: 04:27:04
(UTC+02:00)

Transit 4A - Pass Details

Date: 18 August 2020
Orbit: 863 x 982 km, 66.8° (Epoch: 23 September)

Event Time Altitude Azimuth Distance (km) Brightness Sun altitude
Rises 06:56:16 0° 148° (SSE) 3,488 11.2 4.1°
Reaches altitude 10° 07:00:57 10° 114° (ESE) 2,586 11.2 4.9°
Maximum altitude 07:02:28 11° 99° (E) 2,527 11.7 5.2°
Drops below altitude 10° 07:04:00 10° 84° (E) 2,613 12.8 5.4°
Sets 07:08:48 0° 51° (NE) 3,598 12.3 6.3°
